Regional Weather Roundup
Issued by NWS

Home | Current Version | Previous Version | Graphics & Text | Print | Product List | Glossary On
Versions: 1 2 3 4 5 6 7 8 9 10 11 12 13 14 15 16 17 18 19 20 21 22 23 24 25 26 27 28 29 30 31 32 33 34 35 36 37 38 39 40 41 42 43 44 45 46 47 48 49 50
292
ASUS45 KABQ 260810
RWRNM
NEW MEXICO REGIONAL WEATHER ROUNDUP
NATIONAL WEATHER SERVICE ALBUQUERQUE NM
200 AM MDT FRI MAY 26 2017

NOTE: "FAIR" MEANS FEW OR NO CLOUDS BELOW 12,000 FEET AGL WITH NO
       SIGNIFICANT WEATHER OR OBSTRUCTIONS TO VISION.

      THIS PRODUCT IS RELEASED AS TWO VERSIONS.  ONE VERSION NEAR
      THE TOP OF THE HOUR CONTAINING PRELIMINARY DATA FROM ALBUQUERQUE
      AND OTHER STATIONS.  A FINAL VERSION WITH ADDITIONAL DATA IS
      ISSUED ABOUT 10 MINUTES AFTER THE HOUR.

NMZ501-503-504-510>518-260900-
NORTHWEST PLATEAU/NORTHCENTRAL MOUNTAINS

CITY           SKY/WX    TMP DP  RH WIND       PRES   REMARKS
FARMINGTON     FAIR      61  16  17 W6        29.90R
LOS ALAMOS     FAIR      61   7  11 W17G29    30.01S
SANTA FE       FAIR      53  10  18 E7        29.99R
TAOS           FAIR      55  16  21 CALM      30.02R
ANGEL FIRE     FAIR      53  19  25 W16G24    30.06R

$$
NMZ402-403-502-505>509-260900-
WESTCENTRAL MOUNTAINS/SOUTHWEST MOUNTAINS

CITY           SKY/WX    TMP DP  RH WIND       PRES   REMARKS
GALLUP         FAIR      51  15  23 SW7       30.01S
GRANTS         FAIR      61  10  13 SW8       30.03S
SILVER CITY    FAIR      62  20  19 W10       30.02S

$$
NMZ407-409-411-412-260900-
SOUTHERN DESERTS

CITY           SKY/WX    TMP DP  RH WIND       PRES   REMARKS
DEMING         FAIR      65  19  17 W8        29.95S
LAS CRUCES     FAIR      72  22  15 W15       29.96S
HOLLOMAN AFB   FAIR      72  18  13 SE3       29.95R
T OR C         FAIR      70  13  11 SW8       29.94R

$$
NMZ519>523-260900-
CENTRAL VALLEYS/CENTRAL HIGHLANDS

CITY           SKY/WX    TMP DP  RH WIND       PRES   REMARKS
ALBUQUERQUE    FAIR      68   9  10 S5        29.96R
DOUBLE EAGLE   FAIR      60  11  14 W16       29.96F
MORIARTY ARPT  FAIR      67  13  12 W22G30    30.00S
CLINES CORNERS FAIR      57  10  15 W21       30.03R
BELEN          FAIR      56   9  15 W5        29.96R
SOCORRO        FAIR      66  12  12 CALM      29.93S

$$
NMZ524>526-539-540-260900-
SOUTHCENTRAL MOUNTAINS

CITY           SKY/WX    TMP DP  RH WIND       PRES   REMARKS
RUIDOSO        FAIR      64  14  14 W14G23    30.05R

$$
NMZ527>531-260900-
NORTHEAST HIGHLANDS/NORTHEAST PLAINS

CITY           SKY/WX    TMP DP  RH WIND       PRES   REMARKS
LAS VEGAS      FAIR      57   8  14 SW7       29.97R
RATON          FAIR      50  30  46 NE6       29.91R
CLAYTON        FAIR      52  47  83 N12       29.85R

$$
NMZ532>537-260900-
EASTCENTRAL PLAINS

CITY           SKY/WX    TMP DP  RH WIND       PRES   REMARKS
SANTA ROSA     FAIR      64  15  14 SW6       29.86R
TUCUMCARI      FAIR      69  18  14 W9        29.77R
CANNON AFB     FAIR      68  18  15 W14       29.83S
CLOVIS AIRPORT FAIR      70  19  14 W17       29.81S

$$
NMZ028-029-538-260900-
SOUTHEAST PLAINS

CITY           SKY/WX    TMP DP  RH WIND       PRES   REMARKS
ROSWELL        FAIR      67  19  16 W8        29.82R
ARTESIA        FAIR      66  21  18 SW10      29.83S
CARLSBAD       FAIR      76  26  15 W13       29.81S


$$




USA.gov is the U.S. government's official web portal to all federal, state and local government web resources and services.